FW4624 Weather Reports


time (UTC)temp
C
wind
direction
speed
KPH
gust
KPH
rain 1hr
cm
rain 24hr
cm
rain mn
cm
humidity
%
barometer
mb
20260831212540 16 248 0.0 4.8 0.00 0.71 0.71 86 1018.6
20260831212037 16 248 1.6 4.8 0.00 0.71 0.71 86 1018.7
20260831211538 16 248 1.6 4.8 0.00 0.71 0.71 86 1018.5
20260831211139 16 248 0.0 1.6 0.00 0.71 0.71 86 1018.6
20260831210536 16 248 0.0 3.2 0.00 0.71 0.71 87 1018.6
20260831210038 16 248 0.0 3.2 0.00 0.71 0.71 86 1018.5
20260831205537 16 248 0.0 3.2 0.00 0.71 0.71 86 1018.6
20260831205038 16 248 1.6 3.2 0.00 0.71 0.71 86 1018.4
20260831204536 16 248 0.0 0.0 0.00 0.71 0.71 86 1018.4
20260831204036 16 248 0.0 0.0 0.00 0.71 0.71 85 1018.3
20260831203535 16 248 0.0 0.0 0.00 0.71 0.71 84 1018.2
20260831203036 16 248 0.0 4.8 0.00 0.71 0.71 83 1018.3
20260831202534 16 248 0.0 4.8 0.00 0.71 0.71 82 1018.2
20260831202034 17 248 0.0 6.4 0.00 0.71 0.71 82 1018.2
20260831201542 17 248 3.2 6.4 0.00 0.71 0.71 83 1018.2
20260831201135 17 248 4.8 6.4 0.00 0.71 0.71 83 1018.1
20260831200531 16 246 1.6 8.0 0.00 0.71 0.71 83 1017.8
20260831200030 16 246 3.2 8.0 0.00 0.71 0.71 83 1017.8
20260831195535 16 248 0.0 1.6 0.00 0.71 0.71 83 1017.7
20260831195030 16 248 0.0 0.0 0.00 0.71 0.71 83 1017.6
20260831194530 16 248 0.0 0.0 0.00 0.71 0.71 83 1017.6
20260831194031 16 248 0.0 0.0 0.00 0.71 0.71 82 1017.7
20260831193529 16 248 0.0 0.0 0.00 0.71 0.71 81 1017.5
20260831193030 16 248 0.0 0.0 0.00 0.71 0.71 80 1017.4
20260831192527 17 248 0.0 3.2 0.00 0.71 0.71 79 1017.4
20260831192027 17 248 0.0 3.2 0.00 0.71 0.71 78 1017.3
20260831191527 17 248 0.0 1.6 0.00 0.71 0.71 78 1017.2
20260831191027 17 248 0.0 3.2 0.00 0.71 0.71 78 1017.2
20260831190526 17 248 0.0 4.8 0.00 0.71 0.71 77 1017.2
20260831190026 17 248 1.6 6.4 0.00 0.71 0.71 77 1017.0
20260831185526 17 248 3.2 16.1 0.00 0.71 0.71 77 1017.0
20260831185024 17 244 3.2 16.1 0.00 0.71 0.71 77 1017.0
20260831184525 17 257 3.2 9.7 0.00 0.71 0.71 78 1016.8
20260831184024 17 259 3.2 9.7 0.00 0.71 0.71 77 1016.8
20260831183524 17 260 3.2 9.7 0.00 0.71 0.71 77 1016.8
20260831183024 17 259 3.2 9.7 0.00 0.71 0.71 77 1016.7
20260831182524 17 257 3.2 9.7 0.00 0.71 0.71 77 1016.6
20260831182024 17 257 3.2 11.3 0.00 0.71 0.71 77 1016.5
20260831181524 17 254 1.6 19.3 0.00 0.71 0.71 77 1016.3
20260831181024 17 269 4.8 19.3 0.00 0.71 0.71 77 1016.3
20260831180523 17 265 1.6 9.7 0.00 0.71 0.71 78 1016.1
20260831180025 17 263 1.6 14.5 0.03 0.71 0.71 78 1016.2
20260831175522 17 261 1.6 14.5 0.03 0.71 0.71 78 1016.0
20260831175022 17 250 3.2 14.5 0.03 0.71 0.71 79 1016.1
20260831174522 18 265 1.6 11.3 0.03 0.71 0.71 79 1016.1
20260831174022 18 281 1.6 6.4 0.03 0.71 0.71 79 1016.2
20260831173522 18 295 1.6 6.4 0.03 0.71 0.71 78 1016.2
20260831173021 18 305 1.6 4.8 0.03 0.71 0.71 78 1015.9
20260831172519 18 304 1.6 4.8 0.03 0.71 0.71 78 1015.8
20260831172020 18 304 1.6 6.4 0.03 0.71 0.71 77 1015.7
20260831171523 18 275 3.2 14.5 0.03 0.71 0.71 76 1015.6
20260831171019 18 260 4.8 14.5 0.03 0.71 0.71 77 1015.5
20260831170518 19 306 3.2 22.5 0.03 0.71 0.71 76 1015.6
20260831170022 20 301 8.0 22.5 0.00 0.71 0.71 68 1015.4
20260831165517 20 255 12.9 25.7 0.00 0.71 0.71 66 1015.0
20260831165017 20 246 9.7 22.5 0.00 0.71 0.71 66 1014.7
20260831164520 20 255 12.9 24.1 0.00 0.71 0.71 66 1014.6
20260831164016 20 232 14.5 27.4 0.00 0.71 0.71 66 1014.7
20260831163516 20 252 14.5 29.0 0.00 0.71 0.71 66 1014.7
20260831163018 20 254 16.1 25.7 0.00 0.71 0.71 67 1014.7
20260831162516 20 254 9.7 24.1 0.00 0.71 0.71 69 1014.7
20260831162015 20 224 14.5 29.0 0.00 0.71 0.71 70 1014.6
20260831161519 20 221 14.5 29.0 0.00 0.71 0.71 69 1014.5
20260831161018 20 229 16.1 24.1 0.00 0.71 0.71 72 1014.1
20260831160515 21 214 14.5 27.4 0.00 0.71 0.71 73 1014.2
20260831160017 21 214 12.9 27.4 0.00 0.71 0.71 74 1014.2
20260831155515 21 198 11.3 27.4 0.00 0.71 0.71 75 1014.2
20260831155015 20 219 11.3 27.4 0.00 0.71 0.71 75 1014.3
20260831154515 20 205 12.9 24.1 0.00 0.71 0.71 77 1014.4
20260831154014 20 192 14.5 19.3 0.00 0.71 0.71 78 1014.5
20260831153515 19 210 9.7 20.9 0.00 0.71 0.71 79 1014.5
20260831153016 19 192 11.3 20.9 0.00 0.71 0.71 79 1014.6
20260831152514 19 171 12.9 24.1 0.00 0.71 0.71 79 1014.8
20260831152014 19 202 14.5 27.4 0.00 0.71 0.71 79 1014.7
20260831151519 19 218 14.5 35.4 0.00 0.71 0.71 79 1014.9
20260831151014 19 240 16.1 35.4 0.00 0.71 0.71 79 1014.8
20260831150514 19 235 17.7 32.2 0.00 0.71 0.71 80 1014.9
20260831150014 19 205 16.1 33.8 0.00 0.71 0.71 80 1014.8
20260831145514 20 237 16.1 30.6 0.00 0.71 0.71 79 1014.8
20260831145016 20 214 17.7 32.2 0.00 0.71 0.71 78 1014.6
20260831144513 20 194 19.3 33.8 0.00 0.71 0.71 78 1014.5
20260831144013 20 181 17.7 25.7 0.00 0.71 0.71 79 1014.4
20260831143513 19 234 14.5 40.2 0.00 0.71 0.71 79 1014.5
20260831143013 19 226 16.1 40.2 0.00 0.71 0.71 77 1014.4
20260831142512 20 217 17.7 35.4 0.00 0.71 0.71 77 1014.3
20260831142015 20 191 20.9 40.2 0.00 0.71 0.71 74 1014.4
20260831141512 20 227 24.1 40.2 0.00 0.71 0.71 69 1014.1
20260831141013 21 192 19.3 35.4 0.00 0.71 0.71 69 1014.1
20260831140512 21 218 20.9 35.4 0.00 0.71 0.71 67 1014.1
20260831140012 21 200 17.7 33.8 0.00 0.71 0.71 67 1014.1
20260831135512 21 215 17.7 29.0 0.00 0.71 0.71 66 1014.2
20260831135012 21 197 16.1 27.4 0.00 0.71 0.71 66 1014.0
20260831134521 21 224 16.1 25.7 0.00 0.71 0.71 67 1014.0
20260831134010 21 222 14.5 32.2 0.00 0.71 0.71 66 1014.0
20260831133510 22 200 16.1 32.2 0.00 0.71 0.71 66 1013.9
20260831133012 21 185 14.5 30.6 0.00 0.71 0.71 66 1014.1
20260831132513 21 191 14.5 30.6 0.00 0.71 0.71 66 1014.0
20260831132011 21 213 16.1 29.0 0.00 0.71 0.71 67 1014.1
20260831131510 21 208 17.7 30.6 0.00 0.71 0.71 66 1014.2
20260831131013 21 190 16.1 33.8 0.00 0.71 0.71 66 1014.3
20260831130510 21 207 19.3 33.8 0.00 0.71 0.71 66 1014.3
20260831130011 21 188 17.7 37.0 0.00 0.71 0.71 67 1014.4
20260831125509 22 253 22.5 37.0 0.00 0.71 0.71 65 1014.5
20260831125010 21 252 20.9 35.4 0.00 0.71 0.71 67 1014.5
20260831124510 21 216 16.1 35.4 0.00 0.71 0.71 67 1014.5
20260831124009 21 213 22.5 35.4 0.00 0.71 0.71 66 1014.6
20260831123509 21 235 12.9 35.4 0.00 0.71 0.71 69 1014.4
20260831123012 21 248 17.7 30.6 0.00 0.71 0.71 66 1014.5
20260831122509 21 221 16.1 32.2 0.00 0.71 0.71 68 1014.4
20260831122009 22 228 17.7 37.0 0.00 0.71 0.71 68 1014.4
20260831121509 22 235 24.1 37.0 0.00 0.71 0.71 66 1014.5
20260831121009 22 256 19.3 37.0 0.00 0.71 0.71 66 1014.5
20260831120511 21 234 20.9 40.2 0.00 0.71 0.71 66 1014.3
20260831120010 21 242 19.3 40.2 0.00 0.71 0.71 66 1014.4
20260831115510 21 200 22.5 37.0 0.00 0.71 0.71 66 1014.5
20260831115007 21 212 24.1 37.0 0.00 0.71 0.71 67 1014.5
20260831114508 21 216 19.3 35.4 0.00 0.71 0.71 68 1014.4
20260831114007 22 243 20.9 33.8 0.00 0.71 0.71 67 1014.4
20260831113507 22 198 19.3 35.4 0.00 0.71 0.71 67 1014.4
20260831113007 22 245 22.5 33.8 0.00 0.71 0.71 68 1014.3
20260831112506 22 223 19.3 27.4 0.00 0.71 0.71 67 1014.4
20260831112006 22 181 16.1 33.8 0.00 0.71 0.71 69 1014.6
20260831111505 22 241 20.9 32.2 0.00 0.71 0.71 67 1014.6
20260831111005 22 229 19.3 32.2 0.00 0.71 0.71 68 1014.6
20260831110505 21 168 20.9 37.0 0.00 0.71 0.71 69 1014.6
20260831110005 21 207 25.7 37.0 0.00 0.71 0.71 68 1014.6
20260831105504 22 240 24.1 33.8 0.00 0.71 0.71 67 1014.5
20260831105005 22 230 17.7 32.2 0.00 0.71 0.71 71 1014.5
20260831104507 21 254 16.1 30.6 0.00 0.71 0.71 71 1014.8
20260831104004 22 197 17.7 30.6 0.00 0.71 0.71 70 1014.7
20260831103502 22 184 14.5 29.0 0.00 0.71 0.71 71 1014.6
20260831103002 21 246 19.3 27.4 0.00 0.71 0.71 69 1014.7
20260831102502 21 250 17.7 30.6 0.00 0.71 0.71 71 1014.7
20260831102003 21 254 16.1 32.2 0.00 0.71 0.71 71 1014.8
20260831101502 21 217 20.9 37.0 0.00 0.71 0.71 71 1014.7
20260831101000 21 204 22.5 37.0 0.00 0.71 0.71 71 1014.8
20260831100559 21 209 24.1 30.6 0.00 0.71 0.71 71 1014.8
20260831095558 21 220 19.3 29.0 0.00 0.71 0.71 73 1014.8
20260831095057 21 222 12.9 32.2 0.00 0.71 0.71 77 1014.8
20260831094557 20 221 19.3 32.2 0.00 0.71 0.71 73 1014.8
20260831094056 20 234 14.5 29.0 0.00 0.71 0.71 75 1014.8
20260831093555 20 221 12.9 29.0 0.00 0.71 0.71 76 1014.7
20260831093058 20 261 16.1 22.5 0.00 0.71 0.71 77 1014.8
20260831092554 20 203 16.1 25.7 0.00 0.71 0.71 76 1014.8
20260831092055 20 216 14.5 24.1 0.00 0.71 0.71 77 1014.7
20260831091603 20 238 12.9 22.5 0.00 0.71 0.71 76 1014.7
20260831091054 20 210 16.1 22.5 0.00 0.71 0.71 75 1014.9
20260831090555 20 229 11.3 22.5 0.00 0.71 0.71 77 1014.8
20260831090053 20 248 14.5 24.1 0.00 0.71 0.71 76 1014.7
20260831085553 20 225 12.9 25.7 0.00 0.71 0.71 75 1014.7
20260831085051 20 178 12.9 25.7 0.00 0.71 0.71 78 1014.7
20260831084552 19 223 12.9 24.1 0.00 0.71 0.71 80 1014.6
20260831084049 19 254 11.3 24.1 0.00 0.71 0.71 80 1014.7
20260831083549 19 205 9.7 24.1 0.00 0.71 0.71 81 1014.7
20260831083055 18 228 9.7 25.7 0.00 0.71 0.71 81 1014.6
20260831082550 18 197 9.7 25.7 0.00 0.71 0.71 82 1014.6
20260831082051 18 159 11.3 25.7 0.00 0.71 0.71 83 1014.6
20260831081550 18 163 6.4 17.7 0.00 0.71 0.71 84 1014.7
20260831081050 18 177 9.7 17.7 0.00 0.71 0.71 84 1014.7
20260831080554 18 215 11.3 17.7 0.00 0.71 0.71 84 1014.6
20260831080049 18 209 11.3 27.4 0.00 0.71 0.71 84 1014.7
20260831075553 19 206 11.3 27.4 0.00 0.71 0.71 84 1014.7
20260831075048 19 170 14.5 20.9 0.00 0.71 0.71 84 1014.7
20260831074550 19 214 14.5 22.5 0.00 0.71 0.71 85 1014.8
20260831074048 18 201 12.9 22.5 0.00 0.71 0.71 87 1014.8
20260831073546 18 211 12.9 27.4 0.00 0.71 0.71 88 1014.8
20260831073045 18 198 12.9 27.4 0.00 0.71 0.71 88 1014.8
20260831072543 18 251 11.3 24.1 0.00 0.71 0.71 89 1014.8
20260831072045 18 202 14.5 24.1 0.00 0.71 0.71 89 1014.7
20260831071542 18 215 11.3 22.5 0.00 0.71 0.71 90 1014.7
20260831071042 18 215 12.9 20.9 0.00 0.71 0.71 90 1014.7
20260831070541 18 198 9.7 19.3 0.00 0.71 0.71 91 1014.7
20260831070045 18 205 8.0 19.3 0.00 0.71 0.71 92 1014.8
20260831065540 18 219 9.7 19.3 0.00 0.71 0.71 92 1014.8
20260831065040 17 179 11.3 19.3 0.00 0.71 0.71 92 1014.7
20260831064539 17 198 9.7 17.7 0.00 0.71 0.71 93 1014.7
20260831064040 17 205 8.0 19.3 0.00 0.71 0.71 93 1014.8
20260831063537 17 231 6.4 20.9 0.00 0.71 0.71 93 1014.8
20260831063038 17 185 11.3 20.9 0.00 0.71 0.71 94 1014.7
20260831062536 17 191 9.7 16.1 0.00 0.71 0.71 94 1014.7
20260831062036 17 219 9.7 14.5 0.00 0.71 0.71 94 1014.7
20260831061536 17 208 9.7 24.1 0.00 0.71 0.71 94 1014.7
20260831061034 16 259 9.7 24.1 0.00 0.71 0.71 94 1014.6
20260831060534 16 221 8.0 16.1 0.00 0.71 0.71 94 1014.5
20260831060034 16 242 8.0 14.5 0.00 0.71 0.71 94 1014.3
20260831055532 16 215 8.0 14.5 0.00 0.71 0.71 94 1014.3
20260831055034 16 219 8.0 16.1 0.00 0.71 0.71 94 1014.3
20260831054531 16 191 8.0 22.5 0.00 0.71 0.71 94 1014.0
20260831054033 16 231 12.9 20.9 0.00 0.71 0.71 94 1014.0
20260831053530 16 236 9.7 19.3 0.00 0.71 0.71 94 1013.9
20260831053030 16 207 11.3 24.1 0.00 0.71 0.71 94 1013.9
20260831052529 16 211 8.0 14.5 0.00 0.71 0.71 94 1013.7
20260831052028 16 229 6.4 16.1 0.00 0.71 0.71 94 1013.8
20260831051538 16 207 6.4 14.5 0.00 0.71 0.71 94 1013.6
20260831051028 16 223 4.8 12.9 0.00 0.71 0.71 94 1013.6
20260831050527 16 227 4.8 12.9 0.00 0.71 0.71 94 1013.7
20260831050031 16 209 6.4 12.9 0.00 0.71 0.71 94 1013.5
20260831045528 16 209 6.4 12.9 0.00 0.71 0.71 94 1013.5
20260831045028 16 179 6.4 12.9 0.00 0.71 0.71 94 1013.5
20260831044528 16 199 4.8 14.5 0.00 0.71 0.71 94 1013.5
20260831044028 16 219 6.4 12.9 0.00 0.71 0.71 94 1013.4
20260831043526 16 191 4.8 11.3 0.00 0.71 0.71 93 1013.3
20260831043026 16 194 6.4 12.9 0.00 0.71 0.71 93 1013.2
20260831042526 16 186 6.4 12.9 0.00 0.71 0.71 93 1013.2
20260831042026 16 197 4.8 12.9 0.00 0.71 0.71 93 1013.1
20260831041538 16 193 3.2 9.7 0.00 0.71 0.71 93 1013.1
20260831041026 16 194 4.8 12.9 0.00 0.71 0.71 93 1013.1
20260831040526 16 174 4.8 12.9 0.00 0.71 0.71 93 1013.0
20260831040036 16 189 4.8 11.3 0.03 0.71 0.71 93 1013.1
20260831035525 16 179 4.8 11.3 0.03 0.71 0.71 93 1013.0
20260831035024 16 177 3.2 9.7 0.05 0.71 0.71 93 1013.1
20260831034524 16 171 3.2 8.0 0.05 0.71 0.71 93 1013.0
20260831034027 16 172 4.8 8.0 0.05 0.71 0.71 93 1013.0
20260831033524 16 173 6.4 8.0 0.08 0.71 0.71 93 1013.1
20260831033024 16 172 3.2 8.0 0.08 0.71 0.71 93 1013.1
20260831032527 16 172 4.8 8.0 0.08 0.71 0.71 93 1013.1
20260831032023 16 174 3.2 8.0 0.08 0.71 0.71 93 1013.2
20260831031523 16 173 4.8 8.0 0.10 0.71 0.71 93 1013.3
20260831031024 16 173 4.8 8.0 0.13 0.71 0.71 93 1013.2
20260831030523 15 177 3.2 8.0 0.20 0.71 0.71 93 1013.2
20260831030023 15 181 3.2 8.0 0.23 0.71 0.69 93 1013.2
20260831025523 15 182 4.8 8.0 0.23 0.71 0.69 93 1013.3
20260831025022 15 200 3.2 8.0 0.23 0.69 0.66 93 1013.3
20260831024522 15 209 3.2 6.4 0.23 0.69 0.66 93 1013.2
20260831024024 15 217 3.2 8.0 0.23 0.66 0.64 93 1013.4
20260831023522 15 221 3.2 8.0 0.20 0.64 0.61 93 1013.4
20260831023022 15 223 4.8 8.0 0.20 0.64 0.61 93 1013.5
20260831022521 15 238 3.2 6.4 0.23 0.64 0.61 93 1013.4
20260831022021 16 238 1.6 6.4 0.23 0.64 0.61 93 1013.2
20260831021521 16 238 1.6 4.8 0.23 0.61 0.61 93 1013.2
20260831021021 16 238 1.6 4.8 0.23 0.61 0.58 93 1012.7
20260831020520 16 242 0.0 4.8 0.15 0.51 0.51 92 1013.1
20260831020020 16 242 1.6 4.8 0.15 0.48 0.46 92 1013.3
20260831015519 16 242 0.0 3.2 0.13 0.46 0.43 92 1013.1
20260831015021 16 243 1.6 3.2 0.15 0.46 0.43 92 1013.0
20260831014519 16 243 0.0 3.2 0.13 0.43 0.43 92 1013.1
20260831014019 16 243 0.0 3.2 0.15 0.43 0.43 92 1013.3
20260831013518 16 243 0.0 3.2 0.18 0.43 0.43 92 1013.1
20260831013018 16 243 0.0 3.2 0.20 0.43 0.43 91 1013.1
20260831012518 16 243 0.0 3.2 0.20 0.43 0.41 91 1013.3
20260831012017 16 243 1.6 3.2 0.23 0.43 0.41 91 1013.2
20260831011519 16 243 0.0 3.2 0.23 0.41 0.38 91 1013.3
20260831011016 16 243 0.0 4.8 0.23 0.38 0.36 91 1013.3
20260831010515 16 243 3.2 4.8 0.25 0.36 0.33 91 1013.1
20260831010015 16 245 1.6 4.8 0.25 0.33 0.33 90 1013.5
20260831005515 16 245 0.0 0.0 0.23 0.33 0.30 91 1013.5
20260831005014 16 245 0.0 0.0 0.25 0.33 0.30 90 1013.6
20260831004514 16 245 0.0 0.0 0.28 0.33 0.30 90 1013.6
20260831004016 16 245 0.0 0.0 0.23 0.28 0.25 90 1013.7
20260831003513 16 245 0.0 0.0 0.23 0.25 0.23 89 1013.7
20260831003011 16 245 0.0 0.0 0.23 0.23 0.23 89 1013.7
20260831002511 16 245 0.0 0.0 0.20 0.23 0.20 88 1013.5
20260831002011 16 245 0.0 0.0 0.15 0.18 0.15 87 1013.5
20260831001509 16 245 0.0 0.0 0.15 0.15 0.15 86 1013.5
20260831001009 16 245 0.0 6.4 0.13 0.15 0.13 86 1013.6
20260831000509 17 245 1.6 6.4 0.08 0.10 0.08 85 1013.4
20260831000007 17 245 1.6 8.0 0.05 0.08 0.05 84 1013.6
20260830235507 17 245 4.8 8.0 0.05 0.08 0.05 82 1013.5
20260830235108 17 245 3.2 12.9 0.05 0.05 0.05 81 1013.4
20260830234510 17 245 6.4 12.9 0.03 0.05 0.03 79 1013.5
20260830234006 17 234 6.4 12.9 0.00 0.03 0.00 79 1013.4
20260830233505 17 246 1.6 6.4 0.00 0.03 0.00 80 1013.2
20260830233005 17 246 0.0 3.2 0.00 0.03 0.00 79 1013.1
20260830232505 17 246 0.0 3.2 0.00 0.03 0.00 79 1013.0
20260830232005 17 246 0.0 3.2 0.00 0.03 0.00 79 1013.1
20260830231505 17 246 1.6 4.8 0.00 0.03 0.00 79 1012.9
20260830231003 17 246 1.6 4.8 0.00 0.03 0.00 80 1013.0
20260830230505 17 247 0.0 4.8 0.00 0.03 0.00 82 1013.2
20260830230002 17 247 1.6 4.8 0.00 0.03 0.00 83 1013.2
20260830225502 17 247 0.0 0.0 0.00 0.03 0.00 82 1013.3
20260830225002 17 247 0.0 0.0 0.00 0.03 0.00 83 1013.2
20260830224501 17 247 0.0 0.0 0.00 0.03 0.00 82 1013.3
20260830224003 17 247 0.0 0.0 0.00 0.03 0.00 81 1013.1
20260830223501 16 247 0.0 0.0 0.00 0.03 0.00 81 1013.1
20260830223001 16 247 0.0 0.0 0.00 0.03 0.00 82 1013.2
20260830222600 16 247 0.0 0.0 0.00 0.03 0.00 81 1013.3
20260830222103 17 247 0.0 0.0 0.00 0.03 0.00 81 1013.2
20260830221608 17 247 0.0 0.0 0.00 0.03 0.00 80 1013.3
20260830221057 17 247 0.0 0.0 0.00 0.03 0.00 79 1013.3
20260830220557 17 247 0.0 0.0 0.00 0.03 0.00 78 1013.4
20260830220058 17 247 0.0 0.0 0.00 0.03 0.00 79 1013.5
20260830215556 17 247 0.0 1.6 0.00 0.03 0.03 78 1013.6
20260830215055 17 247 0.0 4.8 0.00 0.03 0.03 78 1013.5
20260830214601 17 247 1.6 4.8 0.00 0.03 0.03 80 1013.5
20260830214053 17 247 0.0 0.0 0.00 0.03 0.03 81 1013.5
20260830213554 17 247 0.0 0.0 0.00 0.03 0.03 80 1013.5
20260830213053 17 247 0.0 0.0 0.00 0.03 0.03 79 1013.5